Glenwood, MN

7:02 AM CDT on April 26, 2017 (GMT -0500)
Glenwood Municipal

Weather History for KGHW - November, 2014

Change the Weather History Date:

Sunday, November 16, 2014

  Actual Average Record
Temperature  
Mean Temperature 8 °F -  
Max Temperature 17 °F 40 °F 66 °F (2001)
Min Temperature -2 °F 21 °F -10 °F (1959)
Degree Days  
Heating Degree Days 58    
Moisture  
Dew Point 3 °F    
Average Humidity 82    
Maximum Humidity 92    
Minimum Humidity 67    
Precipitation  
Precipitation 0.00 in - - ()
Sea Level Pressure  
Sea Level Pressure 29.88 in    
Wind  
Wind Speed 12 mph (West)    
Max Wind Speed 23 mph    
Max Gust Speed 30 mph    
Visibility 10 miles    
Events Snow    
Averages and records for this station are not official NWS values.
T = Trace of Precipitation, MM = Missing Value Source: NWS Daily Summary

Daily Weather History Graph

Daily Weather History Graph

Search for Another Location

Airport or City:

Trip Planner

Search our weather history database for the weather conditions in past years. The results will help you decide how hot, cold, wet, or windy it might be!

Date:

Astronomy

Nov. 16, 2014 Rise Set
Actual Time 7:22 AM CST 4:49 PM CST
Civil Twilight 6:49 AM CST 5:21 PM CST
Nautical Twilight 6:13 AM CST 5:57 PM CST
Astronomical Twilight 5:38 AM CST 6:32 PM CST
Moon 1:11 AM CST (11/16) 1:59 PM CST (11/16)
Length of Visible Light 10h 31m
Length of Day
9h 27m
Waning Crescent, 31% of the Moon is Illuminated
Nov 16
Waning Crescent
Nov 22
New
Nov 29
First Quarter
Dec 6
Full
Dec 14
Last Quarter

Hourly Weather History & Observations

Time (CST) Temp. Windchill Dew Point Humidity Pressure Visibility Wind Dir Wind Speed Gust Speed Precip Events Conditions
12:13 AM 10.4 °F -6.0 °F 6.8 °F 85% 30.07 in 10.0 mi WNW 15.0 mph - N/A   Clear
12:33 AM 10.4 °F -4.1 °F 6.8 °F 85% 30.06 in 10.0 mi WNW 11.5 mph - N/A   Clear
12:53 AM 8.6 °F -4.7 °F 5.0 °F 85% 30.06 in 10.0 mi West 9.2 mph - N/A   Clear
1:13 AM 8.6 °F -5.5 °F 5.0 °F 85% 30.04 in 10.0 mi West 10.4 mph - N/A   Clear
1:33 AM 6.8 °F -6.9 °F 5.0 °F 92% 30.04 in 10.0 mi West 9.2 mph - N/A   Clear
1:53 AM 6.8 °F -4.8 °F 3.2 °F 85% 30.03 in 10.0 mi West 6.9 mph - N/A   Clear
2:13 AM 5.0 °F -8.1 °F 1.4 °F 85% 30.02 in 10.0 mi West 8.1 mph - N/A   Clear
2:33 AM 5.0 °F -9.1 °F 1.4 °F 85% 30.02 in 10.0 mi West 9.2 mph - N/A   Clear
2:53 AM 3.2 °F -9.1 °F 1.4 °F 92% 30.01 in 10.0 mi West 6.9 mph - N/A   Clear
3:13 AM 3.2 °F -10.3 °F 1.4 °F 92% 30.00 in 10.0 mi WSW 8.1 mph - N/A   Clear
3:33 AM 1.4 °F -12.5 °F -2.2 °F 85% 29.99 in 10.0 mi SW 8.1 mph - N/A   Clear
3:53 AM 1.4 °F -13.5 °F -0.4 °F 92% 29.98 in 10.0 mi WSW 9.2 mph - N/A   Clear
4:13 AM 1.4 °F -12.5 °F -2.2 °F 85% 29.97 in 10.0 mi WSW 8.1 mph - N/A   Clear
4:33 AM -0.4 °F -14.7 °F -2.2 °F 92% 29.96 in 10.0 mi WSW 8.1 mph - N/A   Clear
4:53 AM -0.4 °F -15.7 °F -2.2 °F 92% 29.96 in 10.0 mi WSW 9.2 mph - N/A   Clear
5:13 AM -0.4 °F -14.7 °F -4.0 °F 85% 29.95 in 10.0 mi WSW 8.1 mph - N/A   Clear
5:33 AM -2.2 °F -14.2 °F -5.8 °F 85% 29.94 in 10.0 mi WSW 5.8 mph - N/A   Clear
5:53 AM -2.2 °F -14.2 °F -5.8 °F 85% 29.93 in 10.0 mi SW 5.8 mph - N/A   Clear
6:13 AM -2.2 °F -18.9 °F -5.8 °F 85% 29.91 in 10.0 mi SW 10.4 mph - N/A   Clear
6:33 AM -2.2 °F -18.9 °F -5.8 °F 85% 29.90 in 10.0 mi SW 10.4 mph - N/A   Clear
6:53 AM -2.2 °F -19.9 °F -5.8 °F 85% 29.90 in 10.0 mi SW 11.5 mph - N/A   Clear
7:13 AM -2.2 °F -19.9 °F -7.6 °F 78% 29.89 in 10.0 mi SW 11.5 mph - N/A   Clear
7:33 AM -2.2 °F -18.0 °F -7.6 °F 78% 29.88 in 10.0 mi SSW 9.2 mph - N/A   Clear
7:53 AM -0.4 °F -17.6 °F -5.8 °F 78% 29.87 in 10.0 mi SW 11.5 mph - N/A   Clear
8:13 AM 1.4 °F -16.1 °F -2.2 °F 85% 29.87 in 10.0 mi SSW 12.7 mph 18.4 mph N/A   Clear
8:33 AM 1.4 °F -15.3 °F -2.2 °F 85% 29.86 in 10.0 mi SSW 11.5 mph - N/A   Clear
8:53 AM 1.4 °F -17.6 °F -2.2 °F 85% 29.85 in 10.0 mi SW 15.0 mph - N/A   Clear
9:13 AM 3.2 °F -13.1 °F -2.2 °F 78% 29.84 in 10.0 mi SW 11.5 mph - N/A   Clear
9:33 AM 3.2 °F -13.1 °F -0.4 °F 85% 29.84 in 10.0 mi SW 11.5 mph - N/A   Clear
9:53 AM 5.0 °F -10.8 °F -0.4 °F 78% 29.83 in 10.0 mi SW 11.5 mph - N/A   Clear
10:13 AM 6.8 °F -10.7 °F -0.4 °F 72% 29.82 in 10.0 mi SW 15.0 mph 19.6 mph N/A   Clear
10:33 AM 6.8 °F -10.0 °F -0.4 °F 72% 29.82 in 10.0 mi SW 13.8 mph - N/A   Clear
10:53 AM 6.8 °F -9.3 °F -0.4 °F 72% 29.81 in 10.0 mi SW 12.7 mph 19.6 mph N/A   Clear
11:13 AM 8.6 °F -8.9 °F 1.4 °F 73% 29.80 in 10.0 mi SW 16.1 mph 20.7 mph N/A   Clear
11:34 AM 10.4 °F -5.4 °F 1.4 °F 67% 29.80 in 10.0 mi WSW 13.8 mph - N/A   Clear
11:53 AM 10.4 °F -6.0 °F 3.2 °F 73% 29.79 in 10.0 mi WSW 15.0 mph - N/A   Clear
12:13 PM 10.4 °F -5.4 °F 3.2 °F 73% 29.79 in 10.0 mi SW 13.8 mph - N/A   Clear
12:33 PM 12.2 °F -3.7 °F 3.2 °F 67% 29.78 in 10.0 mi WSW 15.0 mph 19.6 mph N/A   Clear
12:53 PM 12.2 °F -4.3 °F 5.0 °F 73% 29.78 in 10.0 mi WSW 16.1 mph - N/A   Clear
1:13 PM 14.0 °F -1.4 °F 6.8 °F 73% 29.77 in 10.0 mi WSW 15.0 mph 18.4 mph N/A   Scattered Clouds
1:33 PM 15.8 °F 1.4 °F 6.8 °F 68% 29.78 in 10.0 mi WSW 13.8 mph - N/A   Overcast
1:53 PM 15.8 °F 2.1 °F 8.6 °F 73% 29.78 in 7.0 mi WSW 12.7 mph 18.4 mph N/A Snow Light Snow
2:13 PM 15.8 °F 2.1 °F 10.4 °F 79% 29.79 in 2.5 mi West 12.7 mph - N/A Snow Light Snow
2:33 PM 15.8 °F -0.2 °F 10.4 °F 79% 29.79 in 7.0 mi West 17.3 mph 24.2 mph N/A Snow Light Snow
2:53 PM 15.8 °F 0.9 °F 10.4 °F 79% 29.79 in 10.0 mi West 15.0 mph - N/A   Overcast
3:13 PM 15.8 °F 0.3 °F 10.4 °F 79% 29.80 in 5.0 mi West 16.1 mph - N/A Snow Light Snow
3:33 PM 15.8 °F -0.2 °F 12.2 °F 86% 29.80 in 3.0 mi West 17.3 mph 20.7 mph N/A Snow Light Snow
3:53 PM 17.6 °F 3.2 °F 12.2 °F 79% 29.81 in 5.0 mi West 15.0 mph - N/A Snow Light Snow
4:13 PM 15.8 °F 0.9 °F 12.2 °F 86% 29.82 in 10.0 mi West 15.0 mph - N/A   Mostly Cloudy
4:33 PM 15.8 °F 0.3 °F 10.4 °F 79% 29.83 in 10.0 mi WNW 16.1 mph - N/A   Clear
4:53 PM 14.0 °F -0.2 °F 8.6 °F 79% 29.84 in 10.0 mi WNW 12.7 mph - N/A   Clear
5:13 PM 14.0 °F 0.5 °F 8.6 °F 79% 29.84 in 10.0 mi West 11.5 mph - N/A   Clear
5:33 PM 14.0 °F 2.0 °F 8.6 °F 79% 29.85 in 10.0 mi West 9.2 mph - N/A   Clear
5:53 PM 12.2 °F -1.0 °F 8.6 °F 85% 29.85 in 10.0 mi West 10.4 mph - N/A   Clear
6:13 PM 12.2 °F -2.5 °F 10.4 °F 92% 29.86 in 7.0 mi West 12.7 mph - N/A Snow Light Snow
6:33 PM 12.2 °F -1.8 °F 10.4 °F 92% 29.86 in 10.0 mi West 11.5 mph 19.6 mph N/A   Scattered Clouds
6:53 PM 12.2 °F -1.0 °F 10.4 °F 92% 29.86 in 10.0 mi West 10.4 mph - N/A   Clear
7:13 PM 12.2 °F -1.8 °F 10.4 °F 92% 29.87 in 10.0 mi West 11.5 mph - N/A   Clear
7:33 PM 12.2 °F -0.2 °F 8.6 °F 85% 29.87 in 10.0 mi West 9.2 mph - N/A   Clear
7:53 PM 10.4 °F -4.1 °F 8.6 °F 92% 29.87 in 10.0 mi West 11.5 mph - N/A   Clear
8:13 PM 10.4 °F -6.0 °F 8.6 °F 92% 29.87 in 10.0 mi West 15.0 mph - N/A   Clear
8:33 PM 10.4 °F -4.8 °F 6.8 °F 85% 29.87 in 10.0 mi West 12.7 mph - N/A   Scattered Clouds
8:53 PM 10.4 °F -7.7 °F 6.8 °F 85% 29.87 in 10.0 mi WNW 18.4 mph 23.0 mph N/A   Clear
9:13 PM 10.4 °F -7.7 °F 6.8 °F 85% 29.88 in 10.0 mi WNW 18.4 mph 25.3 mph N/A   Clear
9:33 PM 10.4 °F -8.6 °F 6.8 °F 85% 29.88 in 10.0 mi WNW 20.7 mph 25.3 mph N/A   Clear
9:53 PM 10.4 °F -8.6 °F 5.0 °F 79% 29.89 in 10.0 mi WNW 20.7 mph 24.2 mph N/A   Clear
10:13 PM 10.4 °F -7.7 °F 3.2 °F 73% 29.89 in 10.0 mi WNW 18.4 mph 26.5 mph N/A   Clear
10:33 PM 10.4 °F -7.2 °F 3.2 °F 73% 29.90 in 10.0 mi NW 17.3 mph 26.5 mph N/A   Scattered Clouds
10:53 PM 8.6 °F -11.9 °F 3.2 °F 79% 29.91 in 7.0 mi NW 23.0 mph 29.9 mph N/A   Scattered Clouds
11:13 PM 6.8 °F -12.9 °F 1.4 °F 79% 29.92 in 10.0 mi NW 19.6 mph 25.3 mph N/A   Clear
11:33 PM 6.8 °F -12.4 °F 1.4 °F 79% 29.92 in 10.0 mi WNW 18.4 mph 24.2 mph N/A   Clear
11:53 PM 6.8 °F -11.3 °F 1.4 °F 79% 29.92 in 10.0 mi WNW 16.1 mph - N/A   Clear